DH7HU-3 Weather Reports


time (UTC)temp
F
wind
direction
speed
knots
gust
knots
rain 1hr
in
rain 24hr
in
rain mn
in
humidity
%
barometer
mb
20260507051745 43 0.0 0.0 0.00 0.00 0.00 46 1003.7
20260507051442 44 0.0 0.0 0.00 0.00 0.00 45 1003.7
20260507051140 43 0.0 0.0 0.00 0.00 0.00 46 1003.6
20260507050837 43 0.0 0.0 0.00 0.00 0.00 47 1003.6
20260507050535 43 0.0 0.0 0.00 0.00 0.00 47 1003.6
20260507050232 43 0.0 0.0 0.00 0.00 0.00 47 1003.6
20260507045623 43 0.0 0.0 0.00 0.00 0.00 47 1003.5
20260507044718 44 0.0 0.0 0.00 0.00 0.00 46 1003.4
20260507044417 44 0.0 0.0 0.00 0.00 0.00 45 1003.4
20260507043813 44 0.0 0.0 0.00 0.00 0.00 45 1003.3
20260507043510 44 0.0 0.0 0.00 0.00 0.00 45 1003.3
20260507042906 44 0.0 0.0 0.00 0.00 0.00 46 1003.2
20260507042559 43 0.0 0.0 0.00 0.00 0.00 47 1003.2
20260507041652 41 0.0 0.0 0.00 0.00 0.00 49 1003.2
20260507041047 41 0.0 0.0 0.00 0.00 0.00 50 1003.1
20260507040745 40 0.0 0.0 0.00 0.00 0.00 50 1003.1
20260507040444 41 0.0 0.0 0.00 0.00 0.00 50 1002.9
20260507040142 41 0.0 0.0 0.00 0.00 0.00 51 1002.9
20260507035538 38 0.0 0.0 0.00 0.00 0.00 55 1002.9
20260507035236 39 0.0 0.0 0.00 0.00 0.00 53 1002.8
20260507034933 38 0.0 0.0 0.00 0.00 0.00 54 1002.8
20260507034328 40 0.0 0.0 0.00 0.00 0.00 52 1002.7
20260507034027 39 0.0 0.0 0.00 0.00 0.00 54 1002.7
20260507033724 37 0.0 0.0 0.00 0.00 0.00 56 1002.7
20260507033422 37 0.0 0.0 0.00 0.00 0.00 57 1002.7
20260507033121 38 0.0 0.0 0.00 0.00 0.00 54 1002.7
20260507032818 37 0.0 0.0 0.00 0.00 0.00 56 1002.6
20260507032211 37 0.0 0.0 0.00 0.00 0.00 55 1002.7
20260507031909 39 0.0 0.0 0.00 0.00 0.00 52 1002.6
20260507031606 40 0.0 0.0 0.00 0.00 0.00 51 1002.6
20260507031304 40 0.0 0.0 0.00 0.00 0.00 51 1002.7
20260507031003 40 0.0 0.0 0.00 0.00 0.00 51 1002.7
20260507030702 40 0.0 0.0 0.00 0.00 0.00 51 1002.7
20260507030058 41 0.0 0.0 0.00 0.00 0.00 50 1002.5
20260507025756 41 0.0 0.0 0.00 0.00 0.00 51 1002.6
20260507025152 40 0.0 0.0 0.00 0.00 0.00 51 1002.6
20260507024850 41 0.0 0.0 0.00 0.00 0.00 50 1002.6
20260507024549 42 0.0 0.0 0.00 0.00 0.00 48 1002.6
20260507024246 42 0.0 0.0 0.00 0.00 0.00 49 1002.6
20260507023643 41 0.0 0.0 0.00 0.00 0.00 50 1002.6
20260507023342 42 0.0 0.0 0.00 0.00 0.00 49 1002.6
20260507023039 42 0.0 0.0 0.00 0.00 0.00 49 1002.6
20260507022738 42 0.0 0.0 0.00 0.00 0.00 49 1002.6
20260507022134 40 0.0 0.0 0.00 0.00 0.00 52 1002.5
20260507021833 39 0.0 0.0 0.00 0.00 0.00 53 1002.5
20260507021530 40 0.0 0.0 0.00 0.00 0.00 51 1002.5
20260507021228 41 0.0 0.0 0.00 0.00 0.00 50 1002.4
20260507020925 41 0.0 0.0 0.00 0.00 0.00 50 1002.4
20260507020616 41 0.0 0.0 0.00 0.00 0.00 49 1002.3
20260507020314 41 0.0 0.0 0.00 0.00 0.00 49 1002.3
20260507020011 42 0.0 0.0 0.00 0.00 0.00 48 1002.3
20260507015710 43 0.0 0.0 0.00 0.00 0.00 46 1002.4
20260507015407 43 0.0 0.0 0.00 0.00 0.00 47 1002.4
20260507015059 42 0.0 0.0 0.00 0.00 0.00 48 1002.3
20260507014757 41 0.0 0.0 0.00 0.00 0.00 50 1002.3
20260507014455 40 0.0 0.0 0.00 0.00 0.00 51 1002.3
20260507013542 42 0.0 0.0 0.00 0.00 0.00 49 1002.4
20260507013239 41 0.0 0.0 0.00 0.00 0.00 50 1002.3
20260507012937 41 0.0 0.0 0.00 0.00 0.00 50 1002.3
20260507012333 41 0.0 0.0 0.00 0.00 0.00 52 1002.2
20260507012031 38 0.0 0.0 0.00 0.00 0.00 53 1002.2
20260507011729 40 0.0 0.0 0.00 0.00 0.00 51 1002.2
20260507011427 38 0.0 0.0 0.00 0.00 0.00 53 1002.2
20260507011126 39 0.0 0.0 0.00 0.00 0.00 54 1002.2
20260507010824 37 0.0 0.0 0.00 0.00 0.00 55 1002.2
20260507010521 38 0.0 0.0 0.00 0.00 0.00 55 1002.2
20260507010218 38 0.0 0.0 0.00 0.00 0.00 54 1002.1
20260507005615 40 0.0 0.0 0.00 0.00 0.00 50 1002.1
20260507005010 39 0.0 0.0 0.00 0.00 0.00 53 1002.0
20260507004708 38 0.0 0.0 0.00 0.00 0.00 55 1001.9
20260507004405 37 0.0 0.0 0.00 0.00 0.00 55 1001.9
20260507003759 40 0.0 0.0 0.00 0.00 0.00 51 1001.7
20260507003457 41 0.0 0.0 0.00 0.00 0.00 48 1001.7
20260507003155 42 0.0 0.0 0.00 0.00 0.00 48 1001.6
20260507002551 44 0.0 0.0 0.00 0.00 0.00 45 1001.5
20260507002248 44 0.0 0.0 0.00 0.00 0.00 45 1001.6
20260507001644 44 0.0 0.0 0.00 0.00 0.00 45 1001.6
20260507001342 44 0.0 0.0 0.00 0.00 0.00 46 1001.8
20260507001040 44 0.0 0.0 0.00 0.00 0.00 46 1001.8
20260507000436 42 0.0 0.0 0.00 0.00 0.00 48 1001.8
20260507000134 44 0.0 0.0 0.00 0.00 0.00 47 1001.7
20260506235832 43 0.0 0.0 0.00 0.00 0.00 47 1001.7
20260506235529 43 0.0 0.0 0.00 0.00 0.00 48 1001.7
20260506235227 42 0.0 0.0 0.00 0.00 0.00 47 1001.7
20260506234925 43 0.0 0.0 0.00 0.00 0.00 47 1001.6
20260506234322 42 0.0 0.0 0.00 0.00 0.00 49 1001.6
20260506233113 43 0.0 0.0 0.00 0.00 0.00 47 1001.7
20260506232810 44 0.0 0.0 0.00 0.00 0.00 46 1001.7
20260506232508 45 0.0 0.0 0.00 0.00 0.00 45 1001.7
20260506232205 45 0.0 0.0 0.00 0.00 0.00 45 1001.7
20260506231902 46 0.0 0.0 0.00 0.00 0.00 45 1001.7
20260506231600 45 0.0 0.0 0.00 0.00 0.00 45 1001.8
20260506231258 46 0.0 0.0 0.00 0.00 0.00 44 1001.7
20260506230655 49 0.0 0.0 0.00 0.00 0.00 42 1001.7
20260506230352 49 0.0 0.0 0.00 0.00 0.00 42 1001.7
20260506230050 49 0.0 0.0 0.00 0.00 0.00 42 1001.7
20260506225748 48 0.0 0.0 0.00 0.00 0.00 43 1001.7
20260506225446 49 0.0 0.0 0.00 0.00 0.00 43 1001.6
20260506225143 48 0.0 0.0 0.00 0.00 0.00 43 1001.5
20260506224539 49 0.0 0.0 0.00 0.00 0.00 43 1001.4
20260506223934 49 0.0 0.0 0.00 0.00 0.00 44 1001.3
20260506223630 49 0.0 0.0 0.00 0.00 0.00 45 1001.3
20260506223328 48 0.0 0.0 0.00 0.00 0.00 45 1001.2
20260506222724 48 0.0 0.0 0.00 0.00 0.00 46 1001.1
20260506222119 46 0.0 0.0 0.00 0.00 0.00 48 1001.1
20260506221816 45 0.0 0.0 0.00 0.00 0.00 49 1001.0
20260506221515 45 0.0 0.0 0.00 0.00 0.00 50 1000.9
20260506221213 44 0.0 0.0 0.00 0.00 0.00 50 1000.9
20260506220608 46 0.0 0.0 0.00 0.00 0.00 47 1000.9
20260506220306 47 0.0 0.0 0.00 0.00 0.00 47 1000.8
20260506220003 47 0.0 0.0 0.00 0.00 0.00 46 1000.8
20260506215653 48 0.0 0.0 0.00 0.00 0.00 46 1000.8
20260506215051 50 0.0 0.0 0.00 0.00 0.00 44 1000.9
20260506214748 50 0.0 0.0 0.00 0.00 0.00 44 1000.9
20260506214445 50 0.0 0.0 0.00 0.00 0.00 44 1000.9
20260506213538 49 0.0 0.0 0.00 0.00 0.00 44 1000.9
20260506213236 50 0.0 0.0 0.00 0.00 0.00 44 1000.8
20260506212934 50 0.0 0.0 0.00 0.00 0.00 44 1000.8
20260506212330 50 0.0 0.0 0.00 0.00 0.00 45 1000.8
20260506212028 50 0.0 0.0 0.00 0.00 0.00 45 1000.7
20260506211726 50 0.0 0.0 0.00 0.00 0.00 44 1000.7
20260506211425 50 0.0 0.0 0.00 0.00 0.00 45 1000.7
20260506211122 50 0.0 0.0 0.00 0.00 0.00 45 1000.7
20260506210821 50 0.0 0.0 0.00 0.00 0.00 46 1000.8
20260506210520 49 0.0 0.0 0.00 0.00 0.00 46 1000.7
20260506205613 48 0.0 0.0 0.00 0.00 0.00 46 1000.7
20260506205008 49 0.0 0.0 0.00 0.00 0.00 46 1000.5
20260506204705 49 0.0 0.0 0.00 0.00 0.00 46 1000.5
20260506204404 49 0.0 0.0 0.00 0.00 0.00 46 1000.5
20260506204101 49 0.0 0.0 0.00 0.00 0.00 45 1000.6
20260506203759 50 0.0 0.0 0.00 0.00 0.00 45 1000.5
20260506203456 50 0.0 0.0 0.00 0.00 0.00 45 1000.5
20260506203154 50 0.0 0.0 0.00 0.00 0.00 45 1000.5
20260506202852 50 0.0 0.0 0.00 0.00 0.00 45 1000.5
20260506202548 50 0.0 0.0 0.00 0.00 0.00 45 1000.5
20260506202247 51 0.0 0.0 0.00 0.00 0.00 45 1000.5
20260506201642 50 0.0 0.0 0.00 0.00 0.00 46 1000.5
20260506201341 50 0.0 0.0 0.00 0.00 0.00 46 1000.5
20260506201039 50 0.0 0.0 0.00 0.00 0.00 46 1000.5
20260506200737 50 0.0 0.0 0.00 0.00 0.00 47 1000.5
20260506200434 49 0.0 0.0 0.00 0.00 0.00 47 1000.4
20260506195830 48 0.0 0.0 0.00 0.00 0.00 48 1000.4
20260506195528 48 0.0 0.0 0.00 0.00 0.00 49 1000.4
20260506195226 50 0.0 0.0 0.00 0.00 0.00 46 1000.4
20260506194617 51 0.0 0.0 0.00 0.00 0.00 45 1000.4
20260506194314 51 0.0 0.0 0.00 0.00 0.00 46 1000.4
20260506194012 51 0.0 0.0 0.00 0.00 0.00 45 1000.3
20260506193106 51 0.0 0.0 0.00 0.00 0.00 45 1000.1
20260506192803 51 0.0 0.0 0.00 0.00 0.00 45 1000.1
20260506192502 51 0.0 0.0 0.00 0.00 0.00 45 1000.1
20260506192200 51 0.0 0.0 0.00 0.00 0.00 45 1000.2
20260506191858 51 0.0 0.0 0.00 0.00 0.00 45 1000.2
20260506191555 51 0.0 0.0 0.00 0.00 0.00 45 1000.2
20260506191252 51 0.0 0.0 0.00 0.00 0.00 45 1000.2
20260506190950 51 0.0 0.0 0.00 0.00 0.00 45 1000.1
20260506190044 51 0.0 0.0 0.00 0.00 0.00 45 999.9
20260506185741 51 0.0 0.0 0.00 0.00 0.00 46 999.9
20260506185137 51 0.0 0.0 0.00 0.00 0.00 46 999.9
20260506184230 52 0.0 0.0 0.00 0.00 0.00 45 999.8
20260506183928 52 0.0 0.0 0.00 0.00 0.00 44 999.9
20260506182719 52 0.0 0.0 0.00 0.00 0.00 44 999.7
20260506182114 53 0.0 0.0 0.00 0.00 0.00 44 999.7
20260506181812 52 0.0 0.0 0.00 0.00 0.00 44 999.6
20260506181510 52 0.0 0.0 0.00 0.00 0.00 44 999.6
20260506181208 52 0.0 0.0 0.00 0.00 0.00 44 999.6
20260506180558 53 0.0 0.0 0.00 0.00 0.00 44 999.5
20260506180256 52 0.0 0.0 0.00 0.00 0.00 45 999.5
20260506175954 52 0.0 0.0 0.00 0.00 0.00 45 999.4
20260506175653 53 0.0 0.0 0.00 0.00 0.00 45 999.4
20260506175048 52 0.0 0.0 0.00 0.00 0.00 45 999.3
20260506174745 52 0.0 0.0 0.00 0.00 0.00 45 999.3
20260506174444 52 0.0 0.0 0.00 0.00 0.00 46 999.2
20260506174141 52 0.0 0.0 0.00 0.00 0.00 46 999.2
20260506173538 52 0.0 0.0 0.00 0.00 0.00 45 999.2
20260506173237 52 0.0 0.0 0.00 0.00 0.00 46 999.2
20260506172934 52 0.0 0.0 0.00 0.00 0.00 46 999.3
20260506172329 52 0.0 0.0 0.00 0.00 0.00 46 999.3
20260506171422 53 0.0 0.0 0.00 0.00 0.00 45 999.2
20260506170818 54 0.0 0.0 0.00 0.00 0.00 45 999.3
20260506170516 54 0.0 0.0 0.00 0.00 0.00 45 999.2
20260506165610 53 0.0 0.0 0.00 0.00 0.00 45 999.2
20260506165006 53 0.0 0.0 0.00 0.00 0.00 45 999.1
20260506164703 53 0.0 0.0 0.00 0.00 0.00 45 999.1
20260506164402 53 0.0 0.0 0.00 0.00 0.00 45 999.0
20260506163758 53 0.0 0.0 0.00 0.00 0.00 45 998.9
20260506163455 53 0.0 0.0 0.00 0.00 0.00 45 999.0
20260506163153 53 0.0 0.0 0.00 0.00 0.00 46 999.0
20260506162851 54 0.0 0.0 0.00 0.00 0.00 44 999.1
20260506162638 55 0.0 0.0 0.00 0.00 0.00 43 999.1
20260506162549 54 0.0 0.0 0.00 0.00 0.00 43 999.1
20260506162247 55 0.0 0.0 0.00 0.00 0.00 43 999.1
20260506161643 55 0.0 0.0 0.00 0.00 0.00 44 999.1
20260506161341 55 0.0 0.0 0.00 0.00 0.00 43 999.1
20260506161038 55 0.0 0.0 0.00 0.00 0.00 43 999.2
20260506160735 55 0.0 0.0 0.00 0.00 0.00 43 999.2
20260506155829 55 0.0 0.0 0.00 0.00 0.00 43 999.2
20260506154924 55 0.0 0.0 0.00 0.00 0.00 43 999.4
20260506154622 55 0.0 0.0 0.00 0.00 0.00 43 999.4
20260506154016 55 0.0 0.0 0.00 0.00 0.00 44 999.3
20260506153714 55 0.0 0.0 0.00 0.00 0.00 43 999.4
20260506153105 55 0.0 0.0 0.00 0.00 0.00 44 999.3
20260506152801 55 0.0 0.0 0.00 0.00 0.00 43 999.4
20260506152156 55 0.0 0.0 0.00 0.00 0.00 43 999.4
20260506151854 56 0.0 0.0 0.00 0.00 0.00 43 999.3
20260506151553 56 0.0 0.0 0.00 0.00 0.00 42 999.2
20260506150646 56 0.0 0.0 0.00 0.00 0.00 43 999.2
20260506150344 56 0.0 0.0 0.00 0.00 0.00 42 999.2
20260506145739 57 0.0 0.0 0.00 0.00 0.00 42 999.1
20260506145437 57 0.0 0.0 0.00 0.00 0.00 43 999.1
20260506145135 56 0.0 0.0 0.00 0.00 0.00 43 999.1
20260506144531 56 0.0 0.0 0.00 0.00 0.00 44 999.0
20260506144228 55 0.0 0.0 0.00 0.00 0.00 44 999.0
20260506143927 55 0.0 0.0 0.00 0.00 0.00 44 999.0
20260506143624 55 0.0 0.0 0.00 0.00 0.00 44 999.0
20260506143322 55 0.0 0.0 0.00 0.00 0.00 45 999.0
20260506142719 55 0.0 0.0 0.00 0.00 0.00 44 999.1
20260506142417 55 0.0 0.0 0.00 0.00 0.00 44 999.1
20260506142116 56 0.0 0.0 0.00 0.00 0.00 44 999.2
20260506141814 55 0.0 0.0 0.00 0.00 0.00 44 999.1
20260506141512 55 0.0 0.0 0.00 0.00 0.00 45 999.1
20260506141209 55 0.0 0.0 0.00 0.00 0.00 45 999.1
20260506140606 55 0.0 0.0 0.00 0.00 0.00 45 999.1
20260506140002 55 0.0 0.0 0.00 0.00 0.00 44 999.1
20260506135358 55 0.0 0.0 0.00 0.00 0.00 45 999.1
20260506135057 55 0.0 0.0 0.00 0.00 0.00 45 999.1
20260506134755 55 0.0 0.0 0.00 0.00 0.00 44 999.1
20260506134452 55 0.0 0.0 0.00 0.00 0.00 44 999.1
20260506134151 55 0.0 0.0 0.00 0.00 0.00 44 999.1
20260506133538 55 0.0 0.0 0.00 0.00 0.00 44 999.0
20260506133235 55 0.0 0.0 0.00 0.00 0.00 44 999.0
20260506132934 56 0.0 0.0 0.00 0.00 0.00 44 999.0
20260506132632 56 0.0 0.0 0.00 0.00 0.00 44 999.1
20260506132330 56 0.0 0.0 0.00 0.00 0.00 44 999.1
20260506132029 56 0.0 0.0 0.00 0.00 0.00 44 999.0
20260506131727 56 0.0 0.0 0.00 0.00 0.00 44 998.9
20260506131424 56 0.0 0.0 0.00 0.00 0.00 44 998.8
20260506131122 56 0.0 0.0 0.00 0.00 0.00 45 998.8
20260506130821 56 0.0 0.0 0.00 0.00 0.00 44 998.8
20260506130519 56 0.0 0.0 0.00 0.00 0.00 44 998.8
20260506125612 55 0.0 0.0 0.00 0.00 0.00 45 999.0
20260506125008 55 0.0 0.0 0.00 0.00 0.00 46 998.9
20260506124403 55 0.0 0.0 0.00 0.00 0.00 46 998.8
20260506123758 54 0.0 0.0 0.00 0.00 0.00 46 998.8
20260506123456 54 0.0 0.0 0.00 0.00 0.00 46 998.9
20260506123155 54 0.0 0.0 0.00 0.00 0.00 46 998.9
20260506122854 54 0.0 0.0 0.00 0.00 0.00 46 998.9
20260506122552 55 0.0 0.0 0.00 0.00 0.00 46 998.9
20260506122251 55 0.0 0.0 0.00 0.00 0.00 46 998.8
20260506121043 55 0.0 0.0 0.00 0.00 0.00 45 998.9
20260506120740 55 0.0 0.0 0.00 0.00 0.00 45 999.0
20260506120437 55 0.0 0.0 0.00 0.00 0.00 45 998.9
20260506115528 56 0.0 0.0 0.00 0.00 0.00 44 998.8
20260506115226 56 0.0 0.0 0.00 0.00 0.00 44 998.7
20260506114618 56 0.0 0.0 0.00 0.00 0.00 44 998.6
20260506114317 56 0.0 0.0 0.00 0.00 0.00 44 998.6
20260506114013 57 0.0 0.0 0.00 0.00 0.00 44 998.5
20260506113711 57 0.0 0.0 0.00 0.00 0.00 44 998.4
20260506113408 57 0.0 0.0 0.00 0.00 0.00 43 998.4
20260506113106 57 0.0 0.0 0.00 0.00 0.00 43 998.3
20260506112803 57 0.0 0.0 0.00 0.00 0.00 43 998.2
20260506112200 57 0.0 0.0 0.00 0.00 0.00 44 998.2
20260506111859 57 0.0 0.0 0.00 0.00 0.00 44 998.2
20260506111557 56 0.0 0.0 0.00 0.00 0.00 44 998.1
20260506110651 56 0.0 0.0 0.00 0.00 0.00 43 998.2
20260506110340 57 0.0 0.0 0.00 0.00 0.00 43 998.2
20260506110038 57 0.0 0.0 0.00 0.00 0.00 43 998.3
20260506105736 57 0.0 0.0 0.00 0.00 0.00 43 998.2
20260506105435 57 0.0 0.0 0.00 0.00 0.00 43 998.2
20260506104529 58 0.0 0.0 0.00 0.00 0.00 43 998.1
20260506104227 58 0.0 0.0 0.00 0.00 0.00 42 998.0
20260506103924 58 0.0 0.0 0.00 0.00 0.00 43 998.0
20260506103615 57 0.0 0.0 0.00 0.00 0.00 43 997.9
20260506103009 57 0.0 0.0 0.00 0.00 0.00 44 997.9
20260506102708 57 0.0 0.0 0.00 0.00 0.00 44 997.9
20260506102407 56 0.0 0.0 0.00 0.00 0.00 44 997.8
20260506102104 56 0.0 0.0 0.00 0.00 0.00 44 997.8
20260506101802 56 0.0 0.0 0.00 0.00 0.00 45 997.8
20260506101500 56 0.0 0.0 0.00 0.00 0.00 45 997.7
20260506101159 56 0.0 0.0 0.00 0.00 0.00 45 997.7
20260506100857 56 0.0 0.0 0.00 0.00 0.00 45 997.7
20260506100556 56 0.0 0.0 0.00 0.00 0.00 44 997.7
20260506100253 56 0.0 0.0 0.00 0.00 0.00 45 997.7
20260506095044 56 0.0 0.0 0.00 0.00 0.00 45 997.6
20260506094441 55 0.0 0.0 0.00 0.00 0.00 45 997.6
20260506093534 55 0.0 0.0 0.00 0.00 0.00 45 997.6
20260506093233 55 0.0 0.0 0.00 0.00 0.00 46 997.5
20260506092326 55 0.0 0.0 0.00 0.00 0.00 46 997.4
20260506091720 55 0.0 0.0 0.00 0.00 0.00 46 997.4
20260506091418 55 0.0 0.0 0.00 0.00 0.00 46 997.4
20260506091115 55 0.0 0.0 0.00 0.00 0.00 46 997.3
20260506090813 55 0.0 0.0 0.00 0.00 0.00 46 997.3
20260506090511 55 0.0 0.0 0.00 0.00 0.00 46 997.3
20260506090209 55 0.0 0.0 0.00 0.00 0.00 46 997.2
20260506085604 55 0.0 0.0 0.00 0.00 0.00 46 997.1
20260506084053 54 0.0 0.0 0.00 0.00 0.00 46 997.0
20260506083750 54 0.0 0.0 0.00 0.00 0.00 46 997.0
20260506083449 54 0.0 0.0 0.00 0.00 0.00 47 997.0
20260506082534 54 0.0 0.0 0.00 0.00 0.00 47 996.9
20260506082232 54 0.0 0.0 0.00 0.00 0.00 47 996.8
20260506081930 54 0.0 0.0 0.00 0.00 0.00 47 996.9
20260506081627 54 0.0 0.0 0.00 0.00 0.00 47 996.9
20260506081321 54 0.0 0.0 0.00 0.00 0.00 47 996.9
20260506081011 54 0.0 0.0 0.00 0.00 0.00 48 996.9
20260506080702 54 0.0 0.0 0.00 0.00 0.00 48 996.8
20260506080359 54 0.0 0.0 0.00 0.00 0.00 48 996.9
20260506073327 54 0.0 0.0 0.00 0.00 0.00 48 996.6
20260506072108 53 0.0 0.0 0.00 0.00 0.00 50 996.6
20260506071806 52 0.0 0.0 0.00 0.00 0.00 50 996.6
20260506071502 52 0.0 0.0 0.00 0.00 0.00 51 996.6
20260506071200 51 0.0 0.0 0.00 0.00 0.00 51 996.6
20260506070858 51 0.0 0.0 0.00 0.00 0.00 52 996.6
20260506070555 50 0.0 0.0 0.00 0.00 0.00 53 996.6
20260506070253 51 0.0 0.0 0.00 0.00 0.00 51 996.6
20260506062325 51 0.0 0.0 0.00 0.00 0.00 51 996.4
20260506061720 51 0.0 0.0 0.00 0.00 0.00 51 996.3
20260506060813 52 0.0 0.0 0.00 0.00 0.00 49 996.3
20260506060511 52 0.0 0.0 0.00 0.00 0.00 49 996.3
20260506060208 52 0.0 0.0 0.00 0.00 0.00 49 996.3